User: anonymous
Location: Columbia
(38.9520°N, 92.3340°W)
Time: 03:35:44
(UTC-05:00)
Language:

CZ-2C R/B - Orbit

View from above orbital plane
View from above orbital plane
View from above satellite
View from above satellite

Ground track
Ground track

The orbit data is extracted from the following two-line orbital elements,

1 28480U 04046B   14212.51871618  .00000073  00000-0  42495-4 0  3951
2 28480 098.0953 005.0978 0143848 090.9354 311.9341 14.25316778504404
Epoch (UTC): 31 July 2014 12:26:57
Eccentricity: 0.0143848
inclination: 98.0953°
perigee height: 704 km
apogee height: 911 km
right ascension of ascending node: 5.0978°
argument of perigee: 90.9354°
revolutions per day: 14.25316778
mean anomaly at epoch: 311.9341°
orbit number at epoch: 50440

The dashed part of the orbit path shows where the satellite is in the earth's shadow,  

DLR